Simultaneous Nadir Overpasses (SNOs) Predictions

Prediction of SNOs between GOES-15 and METOP-B Satellite Orbit:

Table of predicted SNOs for the next 14.0 days since TLE Epoch: 11/14/2025
Index Date Time (GOES-15) GOES-15 Lat,Lon METOP-B Lat,Lon Distance(km) Time Diff (sec)
1 11/15/2025 16:34:49 -0.71, 61.83 0.23, 66.01 476.48 80
2 11/17/2025 04:53:51 0.70, 61.69 0.74, 61.40 33.23 80
3 11/19/2025 16:52:25 -0.69, 61.76 -0.72, 61.75 3.09 80
4 11/22/2025 04:53:33 0.69, 61.62 0.60, 62.11 55.38 80
5 11/23/2025 17:10:01 -0.66, 61.70 -1.63, 57.48 481.59 80
6 11/24/2025 16:52:08 -0.69, 61.69 -0.50, 62.44 86.19 80
7 11/26/2025 05:08:29 0.66, 61.58 1.48, 57.83 426.93 80
8 11/27/2025 04:50:34 0.69, 61.57 0.39, 62.81 141.36 80
9 11/28/2025 17:07:03 -0.65, 61.65 -1.41, 58.18 395.57 80
